Theta_e
327 333 336 337 335 335 333 332 332 331 331 330 329 328 329 333 337 338 338 336 333 330 331 333 334 335 335 335 335 334 335 335 337 336 336 336 335 335 334 333 333 332 332
324 331 335 337 335 335 334 332 332 332 332 331 330 329 329 330 332 334 334 333 330 330 330 332 334 335 336 336 335 335 334 335 337 336 335 334 330 335 333 333 333 332 332
327 330 335 337 335 335 334 333 332 332 332 332 332 331 329 328 328 328 328 328 329 330 330 331 332 334 336 335 334 333 332 334 335 335 335 336 335 334 333 333 332 332 332
327 330 334 336 336 336 335 334 333 333 332 331 332 332 330 328 327 327 326 326 328 329 329 331 332 333 333 332 331 330 330 331 333 334 335 336 334 333 333 333 333 333 332
329 330 333 335 336 336 335 334 333 333 332 331 332 333 332 329 327 326 326 326 328 328 329 331 332 332 331 329 328 329 330 331 333 334 335 333 336 334 333 333 333 331 331
330 332 332 335 336 336 335 335 334 333 333 332 333 333 333 332 328 327 327 328 328 328 329 331 331 330 328 328 329 329 331 332 333 333 333 333 336 334 333 332 332 331 329
331 331 333 334 335 335 335 335 334 334 334 332 332 333 334 333 331 328 328 330 330 329 328 327 326 327 327 328 328 329 331 332 332 333 333 332 332 333 333 332 331 330 329
332 331 332 334 334 334 334 334 334 334 334 333 332 332 333 334 333 330 328 330 331 330 329 327 325 326 327 327 327 329 331 332 333 333 332 332 332 332 333 331 330 330 329
333 330 332 333 333 332 332 332 332 332 332 332 331 330 332 334 334 333 330 330 331 330 329 328 326 325 325 324 326 329 331 331 332 332 331 331 331 333 326 329 330 329 329
333 330 330 330 329 330 331 330 331 331 331 330 328 329 332 333 334 334 332 330 332 330 329 328 326 324 324 324 326 329 330 331 331 332 331 331 331 332 325 324 325 328 328
332 330 329 326 326 327 328 328 330 331 330 328 327 329 332 333 334 334 333 332 331 331 329 329 327 326 325 325 326 328 330 331 331 331 331 331 331 330 328 326 326 325 323
330 327 327 325 325 324 325 327 329 329 329 328 328 329 331 333 334 334 334 333 331 331 331 329 328 326 325 326 327 327 328 329 330 330 331 331 332 331 329 325 324 324 322
334 330 326 325 324 323 324 326 327 328 327 328 329 329 330 332 333 334 334 333 333 332 331 330 329 327 325 326 326 327 327 327 328 329 329 329 330 330 329 326 326 326 326
333 328 327 327 324 322 323 325 325 325 326 327 326 327 328 329 330 332 333 333 333 332 331 331 329 328 326 326 326 326 327 327 326 327 328 328 328 327 328 328 328 326 326
335 327 326 326 325 322 322 322 324 322 324 326 325 326 326 326 326 328 330 331 332 332 332 331 330 329 328 327 327 327 327 326 326 326 326 328 327 326 327 328 329 326 322
326 329 325 325 324 323 322 321 322 322 321 322 323 323 324 324 324 325 327 329 331 332 332 332 331 330 330 329 328 327 327 327 327 326 326 326 326 326 327 328 330 326 324
319 328 325 324 324 323 323 322 320 321 320 320 320 321 322 322 323 323 325 326 328 331 332 332 332 331 331 330 329 329 328 328 327 327 326 326 326 326 326 327 328 327 326
317 320 331 326 323 323 321 323 321 321 321 320 320 321 321 321 321 322 323 324 325 328 330 332 332 332 331 330 330 329 329 329 328 327 327 326 326 326 326 326 326 327 327
317 318 322 334 326 322 322 322 323 322 322 321 321 321 322 322 321 322 322 324 326 326 328 331 332 332 332 331 331 330 330 330 329 328 327 326 325 325 326 326 325 326 326
314 316 319 329 335 330 325 324 324 324 324 323 322 321 322 322 323 323 323 323 325 326 327 330 331 332 332 332 331 331 331 330 329 329 328 327 326 325 325 325 325 327 327
315 315 324 333 338 337 334 332 330 330 329 326 325 323 323 323 323 324 323 324 324 325 326 328 330 331 331 331 330 330 330 329 330 329 327 327 327 327 326 325 324 325 327
314 314 321 330 337 338 337 336 336 335 335 335 332 330 327 324 323 324 323 324 324 324 326 327 329 331 331 327 329 328 328 327 327 326 326 325 325 325 325 324 324 326 324
315 315 314 320 331 336 337 338 337 338 338 337 337 335 334 329 327 326 325 327 325 325 324 325 327 331 331 326 328 328 327 328 325 325 324 324 324 323 323 322 323 324 323
318 318 317 315 318 326 334 333 335 332 332 332 331 336 337 335 332 330 328 331 329 328 327 325 324 331 329 327 327 326 326 325 327 326 324 324 323 323 324 323 323 323 322
316 320 322 321 318 316 316 335 340 339 334 332 328 330 333 335 335 334 332 334 333 331 330 328 327 328 329 327 326 326 326 325 327 326 326 325 324 323 322 323 322 324 324
311 317 321 324 323 321 320 323 336 336 337 336 333 333 333 334 335 337 334 332 333 331 331 330 330 328 327 327 326 325 325 327 326 326 325 325 324 324 323 322 323 324 324
Wind_Speed
29 29 28 28 28 26 23 21 21 21 21 21 20 19 17 17 16 16 14 13 13 14 14 14 13 12 11 10 10 11 8 4 7 8 8 11 12 14 14 15 16 17 18
32 32 30 29 29 26 24 22 21 21 20 19 19 20 19 18 17 16 15 13 13 14 13 13 13 11 9 10 9 8 7 6 9 10 11 12 12 13 14 15 16 17 18
32 32 31 30 29 27 25 23 22 21 19 18 18 18 18 18 17 15 15 14 14 13 14 13 12 11 10 9 8 8 7 8 8 11 12 12 13 14 15 16 16 17 17
32 31 31 31 30 28 26 24 22 21 20 19 18 18 18 17 16 16 15 14 14 14 13 13 13 11 11 9 8 8 8 8 9 10 12 14 14 15 16 17 17 17 16
32 31 31 32 31 28 26 25 23 21 20 19 19 19 18 17 17 16 15 14 14 14 13 13 12 11 10 9 8 8 8 9 10 11 11 12 16 17 18 17 17 17 17
32 30 30 31 31 28 26 25 24 22 21 20 20 19 19 18 17 17 16 14 14 13 12 12 11 10 10 9 8 8 9 10 10 10 10 11 13 16 18 18 18 18 16
30 29 30 31 30 29 27 26 24 23 21 20 19 20 19 19 18 17 16 14 14 13 12 11 11 11 10 9 9 9 9 9 10 10 8 7 9 14 16 17 17 16 15
29 30 31 31 29 28 27 26 25 23 21 20 19 19 19 19 18 17 16 15 14 12 12 11 12 11 10 9 8 8 8 9 9 10 8 8 8 10 18 18 15 12 12
31 30 32 31 30 28 27 26 25 24 22 20 19 19 19 19 18 17 16 16 14 12 12 12 13 11 10 8 7 8 8 8 8 8 8 8 9 9 20 14 11 9 8
31 32 32 32 31 30 29 27 25 24 23 21 20 20 20 19 19 18 17 16 15 13 13 14 14 12 9 8 7 8 8 9 9 8 8 10 9 9 21 19 11 8 6
32 34 33 32 32 31 30 29 27 25 24 22 22 21 21 22 21 20 19 17 17 15 15 15 14 12 11 9 8 8 9 8 7 8 10 11 12 21 9 11 17 10 7
35 37 36 35 34 33 32 31 30 28 27 26 25 24 24 23 22 21 19 18 17 17 16 16 16 14 14 11 8 9 10 9 7 7 11 12 14 16 10 15 7 10 10
33 37 38 36 35 35 34 34 32 31 30 28 27 26 25 24 23 23 21 21 20 19 19 19 19 17 16 13 9 9 11 11 9 9 10 11 13 12 15 14 10 13 12
36 38 39 38 37 36 35 34 34 33 32 30 28 27 26 26 25 24 24 23 23 23 21 21 21 19 18 16 12 11 12 13 12 11 12 13 14 14 15 18 13 13 13
39 39 42 40 39 38 36 35 35 33 32 30 29 28 27 26 25 25 25 24 24 23 23 22 22 21 20 18 16 14 13 13 15 14 13 14 14 15 16 18 17 13 12
29 42 40 41 40 40 39 37 35 33 30 30 29 28 28 26 25 24 25 25 25 25 24 23 23 22 21 20 19 17 15 15 15 17 15 16 15 15 16 16 21 15 14
30 33 42 42 43 43 40 38 34 33 30 29 28 28 28 27 26 24 24 25 25 25 25 25 24 23 22 21 21 20 19 17 18 18 18 18 19 18 16 19 21 21 22
29 31 38 43 45 44 41 40 37 35 33 30 29 29 29 27 26 25 25 25 25 25 25 25 24 24 24 24 23 22 22 21 20 21 21 20 20 20 19 18 21 23 21
30 31 32 43 44 45 43 41 40 37 36 34 31 30 29 29 28 26 25 25 25 25 26 26 26 26 26 25 25 24 24 23 22 24 23 23 22 22 21 19 20 24 22
36 32 34 36 46 44 45 43 40 38 38 37 34 33 32 32 31 28 27 26 26 27 27 28 28 28 27 25 24 25 25 25 25 25 24 24 25 24 23 21 21 27 28
29 34 33 35 45 44 45 43 41 40 40 40 36 36 34 35 33 31 31 28 28 30 29 28 28 28 27 24 23 24 25 25 26 25 24 26 27 27 26 24 23 24 33
24 27 33 36 39 43 42 39 41 40 43 41 37 35 36 36 36 34 34 31 30 30 30 30 29 29 27 24 25 23 17 23 26 26 25 26 27 27 26 28 20 23 31
16 20 26 34 36 38 39 37 40 40 39 40 42 40 40 37 36 34 35 35 32 31 31 30 31 29 28 26 27 22 9 14 17 21 26 26 26 27 29 30 19 14 26
6 10 15 23 31 36 33 33 36 40 40 42 40 40 41 39 37 34 36 38 36 32 31 31 30 30 29 30 28 31 30 17 9 10 17 19 22 24 21 22 28 24 30
5 8 10 14 19 25 31 28 31 34 35 35 37 36 36 38 39 38 39 39 35 34 32 32 30 30 33 32 31 32 31 33 30 24 19 17 21 23 21 23 26 27 36
9 9 9 11 12 16 21 27 27 30 32 35 35 33 32 30 32 41 38 36 30 27 31 34 32 31 32 34 33 33 31 28 30 27 29 27 26 28 26 25 25 32 36
Wind_Direction
190 191 184 185 181 179 179 178 173 166 160 159 159 160 162 158 159 157 153 154 152 154 154 154 154 153 158 156 155 160 162 162 144 149 139 141 145 148 148 143 142 137 134
189 186 186 187 183 181 184 184 179 172 167 164 161 158 158 158 160 161 159 162 160 156 156 155 154 155 159 162 160 160 157 151 146 151 153 158 162 157 151 149 147 141 140
185 184 184 188 185 184 187 187 185 180 176 173 168 160 157 158 161 161 158 159 158 158 159 156 157 158 157 157 159 158 157 157 157 158 164 156 161 161 156 153 154 147 142
185 184 184 188 187 186 189 190 189 186 182 178 173 166 163 161 162 162 157 156 158 163 165 160 162 163 162 165 166 165 165 166 165 169 170 167 170 167 165 161 156 149 145
182 186 186 189 188 190 193 192 192 189 187 182 177 173 168 167 165 165 160 160 162 167 168 168 168 171 171 174 175 175 167 161 168 173 178 176 168 171 169 163 157 153 148
183 186 190 189 189 193 195 195 194 192 190 186 180 178 176 172 172 170 167 165 167 168 173 173 175 177 175 175 172 168 163 160 169 175 179 184 176 178 176 170 163 155 148
184 188 192 191 192 195 197 198 198 195 193 191 187 184 181 180 179 177 173 172 169 170 174 175 178 175 173 168 170 169 165 169 175 176 180 195 193 188 178 170 161 151 147
191 191 192 192 195 198 199 199 200 198 197 196 193 191 188 187 186 183 180 178 176 175 177 175 172 175 169 171 172 172 172 177 175 181 188 191 186 192 189 160 147 148 148
197 196 194 194 196 199 202 202 201 199 200 200 198 196 194 194 192 189 187 184 183 177 180 176 177 177 173 176 177 174 171 173 183 190 196 192 191 178 105 110 129 144 157
200 201 198 197 196 198 200 203 204 201 201 201 200 199 197 198 198 196 193 192 190 185 184 182 180 181 180 178 181 179 177 183 193 196 202 211 199 181 149 162 185 193 196
206 204 203 201 200 199 200 200 202 203 204 203 200 199 200 200 200 201 201 198 195 194 189 187 185 188 186 182 185 188 193 195 207 211 214 218 207 186 188 248 214 220 235
212 208 206 204 204 201 200 199 199 200 203 203 202 199 202 203 204 206 204 203 201 198 194 192 192 195 196 190 197 201 202 205 217 224 229 224 220 220 213 142 166 203 228
219 214 212 208 207 207 202 200 199 200 203 203 204 204 203 204 205 207 206 204 204 202 198 196 198 202 202 202 211 218 211 219 227 228 228 228 236 239 213 201 224 220 210
226 219 216 215 210 209 205 203 203 202 203 205 205 206 206 206 208 209 211 212 211 210 206 206 207 205 208 211 218 228 227 229 241 244 239 233 248 250 237 227 225 213 215
241 227 219 218 215 212 209 207 209 206 207 207 208 209 210 212 213 213 215 217 219 217 216 214 213 213 217 219 224 234 240 242 240 246 249 239 242 247 245 230 223 219 228
259 236 228 222 219 217 213 211 211 212 210 212 211 214 214 216 218 219 219 220 222 223 223 222 221 221 224 226 230 236 245 248 247 246 251 246 246 248 250 244 226 220 236
271 250 237 227 222 220 219 217 215 217 213 215 217 219 220 221 221 222 223 225 225 226 227 228 227 225 228 231 234 238 245 251 252 250 251 252 249 246 251 253 238 248 239
266 256 241 233 224 223 221 223 220 219 220 219 221 223 224 226 226 225 225 227 228 229 231 231 232 230 232 233 237 241 247 252 252 255 253 250 252 252 249 246 260 259 226
262 259 247 236 228 226 226 226 227 227 227 227 226 228 230 231 231 229 229 230 229 230 232 231 233 233 235 238 239 244 250 252 250 254 254 255 256 254 254 258 271 254 217
259 258 252 238 230 228 229 228 230 232 235 233 235 234 233 234 235 232 232 230 231 231 230 230 233 235 238 241 243 249 254 254 253 251 254 257 259 258 258 264 270 240 225
256 252 237 235 231 230 228 229 230 234 236 236 234 236 237 238 237 235 235 232 230 232 233 232 233 237 238 241 248 251 256 256 256 255 256 256 260 263 259 262 262 246 235
237 230 228 231 228 231 232 235 236 237 239 242 239 237 236 236 238 235 236 235 231 232 233 232 231 234 236 237 240 248 253 258 251 253 253 257 263 267 267 269 257 251 247
213 211 214 222 228 230 235 237 239 241 244 245 241 239 239 236 235 233 235 236 233 233 236 237 232 230 233 233 235 235 229 240 253 258 254 253 254 260 267 273 249 227 211
172 183 190 206 217 223 223 231 238 239 240 246 248 245 241 238 236 233 234 237 236 235 237 238 238 229 231 235 234 235 234 242 230 258 257 255 259 258 273 265 237 235 225
93 134 155 181 201 216 220 219 232 239 243 247 251 250 249 248 238 233 234 239 237 237 240 242 240 232 230 236 233 242 239 243 247 247 260 259 259 268 267 273 256 237 218
66 99 109 157 183 205 214 218 223 236 246 248 247 248 248 247 243 238 238 241 239 249 258 251 246 241 237 234 237 242 242 239 242 245 254 256 257 272 270 279 252 238 224